This demonstration page uses our WeatherBlox Daily Observations layout. Learn more.

Left ArrowRight Arrow

Hourly Observations for July 4, 2022

Temp ( °F °C ) Dew Point ( °F °C ) Humidity (%) Winds ( mph kmh ) Pressure ( in mb ) Visibility ( mi km ) Precip ( " mm )
12:51 am 00:51 Clear 81 27.2 60 15.6 49 49 E 10 17 29.75 1007 10 16 0.00 0.00
1:51 am 01:51 Clear 80 26.7 61 16.1 52 52 E 12 19 29.74 1007 10 16 0.00 0.00
2:51 am 02:51 Clear 79 26.1 60 15.6 52 52 ENE 9 15 29.75 1008 10 16 0.00 0.00
3:51 am 03:51 Clear 78 25.6 61 16.1 56 56 ESE 5 7 29.77 1008 10 16 0.00 0.00
4:51 am 04:51 Clear 78 25.6 60 15.6 54 54 ENE 6 9 29.78 1008 10 16 0.00 0.00
5:51 am 05:51 Sunny 78 25.6 60 15.6 54 54 ENE 6 9 29.80 1009 10 16 0.00 0.00
6:51 am 06:51 Sunny 79 26.1 60 15.6 52 52 SSE 3 6 29.82 1010 10 16 0.00 0.00
7:51 am 07:51 Partly Cloudy 82 27.8 60 15.6 47 47 Calm 29.82 1010 10 16 0.00 0.00
8:51 am 08:51 Sunny 84 28.9 60 15.6 44 44 Calm 29.83 1010 10 16 0.00 0.00
9:51 am 09:51 Sunny 85 29.4 59 15 42 42 VRB 3 6 29.83 1010 10 16 0.00 0.00
10:51 am 10:51 Sunny 87 30.6 58 14.4 37 37 Calm 29.82 1010 10 16 0.00 0.00
11:51 am 11:51 Sunny 89 31.7 60 15.6 38 38 SW 5 7 29.81 1010 10 16 0.00 0.00
12:51 pm 12:51 Sunny 90 32.2 59 15 35 35 VRB 5 7 29.78 1009 10 16 0.00 0.00
1:51 pm 13:51 Mostly Sunny 90 32.2 59 15 35 35 SSW 7 11 29.78 1008 10 16 0.00 0.00
2:51 pm 14:51 Mostly Sunny 92 33.3 60 15.6 34 34 S 14 22 29.75 1008 10 16 0.00 0.00
2:59 pm 14:59 Partly Cloudy with Nearby Thunderstorms 92 33.3 60 15.6 34 34 S 8 13 29.66 1004 10 16 0.00 0.00
3:18 pm 15:18 Mostly Sunny 92 33.3 61 16.1 36 36 SE 9 15 29.66 1004 10 16 0.00 0.00
3:33 pm 15:33 Partly Cloudy with Nearby Thunderstorms 91 32.8 60 15.6 35 35 SSW 6 9 29.66 1004 10 16 0.00 0.00
3:51 pm 15:51 Partly Cloudy with Nearby Thunderstorms 87 30.6 63 17.2 45 45 W 16 26 29.76 1008 10 16 0.00 0.00
4:05 pm 16:05 Mostly Sunny 86 30 64 17.8 48 48 W 12 19 29.69 1005 10 16 0.00 0.00
4:51 pm 16:51 Sunny 88 31.1 61 16.1 40 40 WNW 7 11 29.77 1008 10 16 0.00 0.00
5:51 pm 17:51 Sunny 88 31.1 61 16.1 40 40 NNW 5 7 29.75 1008 10 16 0.00 0.00
6:51 pm 18:51 Sunny 85 29.4 62 16.7 46 46 NW 10 17 29.77 1008 10 16 0.00 0.00
7:51 pm 19:51 Clear 85 29.4 61 16.1 45 45 NW 7 11 29.77 1008 10 16 0.00 0.00
8:51 pm 20:51 Mostly Clear 84 28.9 61 16.1 46 46 undefined N/A 29.80 1009 10 16 0.00 0.00
9:51 pm 21:51 Clear 83 28.3 60 15.6 46 46 ENE 8 13 29.81 1009 10 16 0.00 0.00
10:51 pm 22:51 Clear 81 27.2 59 15 47 47 E 6 9 29.82 1010 10 16 0.00 0.00
11:51 pm 23:51 Clear 78 25.6 60 15.6 54 54 E 6 9 29.82 1010 10 16 0.00 0.00

Powered by AerisWeather